Wind_Speed
70 71 73 75 76 77 76 76 77 76 76 75 75 75 77 78 78 78 78 79 79 79 79 78 78 78 78 80 82 84 86 86 86 84 81 82 83 80 79 79 79 79 78 77 76 76 75 76 75 75 75 74 73 72 72 71 70 70 69 68 64 62 60 60 62 63 63 64 63 56 46 41 46 57 57 55 56 55 51 43 42 39 39 43 41 40 39 39
71 72 73 75 77 79 79 79 79 79 79 78 77 76 76 78 79 80 80 79 80 80 81 80 80 80 80 79 80 81 83 85 85 84 84 86 85 82 82 82 81 80 79 79 78 78 77 77 77 77 76 75 74 73 74 73 71 70 70 69 65 63 62 63 64 65 67 65 58 51 44 42 54 62 53 54 57 54 51 43 40 41 42 42 40 40 40 41
72 73 74 75 77 79 81 82 82 81 81 81 81 80 78 78 79 80 81 81 81 81 81 82 82 82 82 81 81 80 80 81 82 83 84 87 87 84 85 84 83 82 81 81 80 80 79 78 78 77 76 76 75 74 75 74 71 71 71 69 65 65 64 65 68 69 67 59 55 52 45 47 59 62 53 54 56 54 52 41 38 44 43 42 41 40 41 42
73 73 74 76 77 79 81 83 84 84 83 83 83 83 82 80 79 80 81 82 83 83 82 82 83 84 84 84 83 82 81 80 80 81 83 86 87 86 87 86 85 84 83 83 82 81 80 79 78 78 77 77 76 76 76 74 71 72 72 69 67 67 67 69 72 68 62 56 57 56 48 52 60 60 54 54 56 55 50 38 37 45 43 42 41 39 41 42
73 74 75 76 77 79 80 82 84 85 85 85 85 84 85 84 82 81 81 82 83 84 84 84 84 85 85 85 85 84 83 82 80 78 80 83 85 85 86 87 87 86 85 85 83 83 82 81 80 79 78 78 78 76 76 75 72 73 73 70 69 70 70 73 71 63 59 57 59 58 54 57 58 58 57 57 56 53 48 39 39 45 44 42 41 40 42 43
73 74 75 76 77 78 80 82 84 86 87 87 86 86 86 86 85 84 83 82 83 84 86 86 86 86 86 86 86 85 85 84 80 78 79 81 82 82 84 85 86 87 87 86 85 84 84 83 82 81 80 79 79 77 76 76 74 75 74 72 71 72 72 72 69 61 59 61 62 61 57 57 58 60 60 58 53 50 47 40 41 47 44 41 41 41 42 44
74 75 75 76 77 78 79 81 83 85 87 88 88 88 87 87 88 87 86 85 84 84 85 87 88 88 88 87 87 86 86 84 81 81 81 82 81 80 81 82 83 85 86 86 86 86 86 85 83 83 82 82 82 79 79 78 77 76 75 73 73 75 73 70 69 61 59 64 64 62 58 58 60 61 61 57 50 49 46 39 43 46 42 42 41 40 42 43
74 75 76 76 77 78 79 80 82 84 86 88 89 89 89 89 89 89 89 88 87 86 86 87 88 89 89 88 88 87 85 85 84 83 83 83 82 80 80 80 80 81 83 84 86 87 88 87 85 85 84 84 84 83 82 81 79 77 76 75 74 76 73 69 69 61 60 67 65 62 60 59 60 61 60 54 48 49 45 40 43 42 41 41 38 40 42 41
74 75 76 76 77 78 79 80 82 83 85 87 89 90 91 90 90 90 90 90 89 89 88 87 88 89 91 90 89 87 86 87 86 83 83 84 83 82 81 81 80 80 80 80 83 85 86 87 87 87 86 86 86 85 83 82 80 78 77 78 76 77 73 69 69 63 63 67 65 62 61 60 61 61 58 51 48 47 42 38 37 37 39 38 36 39 38 37
74 74 75 76 77 78 79 80 81 83 84 86 89 90 91 92 92 92 92 92 91 91 91 89 88 88 91 91 90 87 87 89 85 81 82 84 84 84 83 82 81 80 79 79 80 80 82 84 86 87 88 88 87 86 84 81 80 79 79 80 77 75 72 70 69 65 64 67 65 63 63 62 61 59 55 50 49 46 40 36 33 33 34 34 36 37 36 38
73 73 73 75 76 78 79 80 81 83 84 85 88 90 92 93 93 94 93 93 93 93 93 92 91 89 90 91 89 88 89 89 83 79 82 85 85 85 84 83 81 80 79 79 78 78 79 80 83 86 87 87 87 87 85 81 81 81 79 79 77 74 73 72 69 66 65 66 66 65 65 63 60 58 54 49 50 46 40 36 35 35 33 33 36 35 36 38
72 72 72 74 75 77 79 81 82 83 84 85 88 90 92 93 94 95 95 95 95 94 94 94 93 91 90 88 87 89 91 88 84 82 86 87 87 86 84 83 81 80 80 79 79 79 79 80 81 82 82 85 86 86 85 82 83 83 79 80 80 75 73 73 70 67 67 66 67 68 67 62 59 60 54 49 50 46 40 36 35 36 33 33 34 34 34 32
70 71 72 73 75 76 78 81 82 84 85 86 88 90 92 94 95 95 96 97 96 96 96 96 95 93 91 87 86 90 92 90 87 88 90 89 87 86 84 83 82 82 81 80 80 80 80 81 80 79 80 81 81 82 82 81 83 83 79 81 81 75 73 73 71 69 68 68 68 69 67 62 62 61 54 51 52 45 39 35 32 32 31 31 31 30 29 26
68 69 70 72 73 75 77 80 83 85 86 88 89 91 93 94 95 96 97 97 98 97 97 97 97 95 92 88 88 91 92 92 91 90 91 90 87 86 84 82 82 82 82 81 81 81 81 81 81 79 79 77 76 77 78 78 79 80 79 79 79 75 73 74 73 72 70 69 70 70 67 65 65 61 54 54 52 43 35 30 28 30 30 29 28 29 30 31
65 67 68 70 72 73 75 79 82 86 88 90 91 93 94 96 97 98 98 99 99 99 99 99 98 96 92 90 93 93 91 91 92 93 92 91 89 86 84 83 82 82 82 82 82 81 81 82 81 79 78 75 74 73 73 72 74 75 74 74 76 74 72 74 73 72 71 71 71 70 68 67 65 59 56 55 49 39 32 31 33 34 36 35 34 38 40 37
62 64 66 68 70 71 73 76 79 84 87 90 93 94 96 97 99 100 101 101 101 101 101 99 98 96 92 92 96 96 92 90 92 96 94 91 89 88 85 84 83 82 82 82 82 82 82 81 80 79 78 75 74 72 69 68 67 67 67 68 71 71 69 72 71 70 70 70 69 67 68 68 64 59 56 53 49 42 38 42 43 43 45 43 41 47 47 40
59 61 63 66 68 69 71 73 76 80 84 87 91 94 96 98 101 102 103 104 104 103 102 101 99 96 93 96 99 98 95 92 93 95 94 92 90 89 87 85 84 83 82 82 83 82 81 81 80 78 77 75 74 73 68 63 61 61 61 62 65 65 64 67 67 65 66 66 64 64 67 67 63 58 54 52 52 49 45 47 46 45 48 47 47 50 48 44
55 57 60 63 65 67 69 71 73 76 80 83 87 90 94 98 100 102 104 105 105 104 103 102 100 98 97 99 101 100 97 95 94 92 91 93 92 90 89 86 84 84 84 83 82 81 81 82 80 77 76 74 73 70 63 60 59 59 59 59 60 59 58 63 63 57 58 61 59 60 64 64 59 54 52 53 53 50 47 46 44 45 47 48 49 53 52 49
52 55 57 60 63 65 67 69 71 73 76 79 82 85 89 94 98 101 103 104 104 104 104 103 102 101 101 101 102 101 98 95 93 90 88 91 92 92 89 87 86 86 85 83 81 80 81 81 78 75 73 70 68 65 61 61 63 62 61 59 58 56 55 59 59 50 53 59 56 55 60 60 53 49 50 52 52 49 46 45 43 44 45 46 48 50 52 52
50 53 55 58 61 63 65 67 69 70 73 76 78 81 85 89 94 98 99 100 101 102 102 102 102 102 101 101 102 101 98 95 93 92 90 91 93 95 93 90 89 87 85 83 81 81 80 77 74 70 67 65 64 63 62 64 67 66 63 60 58 55 54 57 55 47 51 58 51 51 59 54 44 46 49 49 49 47 47 46 44 44 45 46 47 50 51 50
50 52 54 56 58 60 62 64 66 68 69 71 73 77 81 84 88 90 91 93 97 99 100 101 101 102 100 100 101 99 97 96 95 94 94 93 94 96 96 94 91 87 84 83 83 82 78 74 69 66 65 64 64 63 63 66 69 68 65 62 59 56 55 55 53 48 50 53 48 50 55 44 39 45 46 45 46 45 46 46 44 44 45 46 48 50 51 51
50 51 53 55 56 58 60 62 64 65 66 67 69 72 76 79 80 80 81 85 89 93 96 98 99 100 99 99 100 98 95 95 96 96 95 94 92 93 96 95 91 87 85 84 83 80 75 69 66 66 66 66 66 65 66 67 69 69 66 64 60 57 55 54 55 50 45 49 49 49 48 39 39 43 42 42 44 44 45 44 42 42 42 44 48 51 51 52
48 49 51 52 54 55 56 59 61 62 64 65 67 68 71 72 72 72 73 77 82 85 89 91 94 98 98 97 98 97 95 96 98 98 96 95 92 90 93 95 91 88 87 84 80 76 71 66 66 69 69 69 68 67 66 67 69 69 67 65 60 58 57 56 57 48 40 48 51 46 42 37 38 40 39 41 42 44 46 44 42 42 39 37 42 49 52 53
43 45 47 48 49 50 50 52 54 56 59 61 64 66 67 68 67 67 68 71 75 77 81 84 88 92 94 95 97 96 96 98 99 99 97 95 94 91 91 94 94 91 87 82 77 74 71 69 70 72 72 71 69 67 65 66 68 67 66 65 61 60 59 58 59 48 43 51 50 42 39 37 37 39 38 38 40 44 47 46 46 45 41 37 34 41 51 55
41 42 43 44 45 45 45 46 47 49 51 54 57 59 62 64 64 63 63 64 67 70 75 79 82 87 91 92 93 95 96 98 98 98 96 95 95 93 91 93 95 92 86 82 78 75 73 73 74 74 73 71 68 66 66 66 67 65 63 62 62 62 60 62 62 49 44 52 48 40 39 37 37 39 38 37 40 44 46 47 47 45 45 43 34 32 43 53
39 40 40 41 41 42 42 43 43 43 44 47 49 52 55 57 58 58 59 61 62 66 70 72 75 81 87 88 89 92 95 96 96 96 96 96 96 94 92 93 94 91 86 83 80 77 75 76 76 75 72 70 69 69 68 67 66 60 58 60 63 64 64 67 61 45 44 52 48 42 41 39 38 39 39 40 41 43 45 44 44 45 48 48 41 35 36 44
36 35 36 37 37 38 39 39 38 38 40 42 44 46 49 51 52 53 54 56 59 65 67 68 70 76 81 83 85 90 92 92 94 95 95 96 96 94 91 91 93 91 88 86 83 78 76 76 76 73 71 71 71 70 68 67 63 56 56 61 63 65 68 69 59 46 48 54 49 45 44 41 40 39 39 40 40 41 43 43 41 43 48 50 47 42 38 41
32 30 30 31 31 31 32 33 34 34 36 38 39 43 46 48 50 50 50 50 54 63 68 68 70 74 78 78 79 83 87 90 94 93 93 96 96 93 90 88 91 92 89 86 81 76 75 75 74 72 71 71 70 68 67 67 61 56 59 62 63 67 70 67 59 48 51 56 51 48 46 43 41 41 40 40 39 39 42 45 43 41 44 47 45 40 39 42
28 26 26 26 25 25 26 27 28 29 31 33 35 39 42 45 47 48 47 46 52 61 65 67 71 75 75 72 72 79 84 88 91 92 94 96 95 93 90 88 90 93 90 86 81 78 77 75 74 73 72 71 68 67 69 67 61 59 63 64 64 66 67 64 58 51 54 58 53 49 48 44 42 43 42 41 41 41 43 46 47 45 44 42 40 38 40 43
27 25 24 24 23 22 22 22 23 24 26 29 31 34 38 41 44 45 45 46 53 60 62 66 72 76 73 69 71 76 79 83 87 91 94 96 95 94 92 91 92 93 90 86 83 81 79 76 74 72 71 70 68 68 69 65 61 63 66 64 62 63 63 63 58 55 59 60 53 49 49 47 45 45 44 44 45 45 47 47 47 47 45 42 41 44 47 45
26 24 23 22 21 21 20 20 20 20 21 24 28 30 34 38 40 42 45 48 55 59 59 63 70 74 72 70 72 74 75 79 85 88 91 94 94 93 92 91 92 92 90 86 84 82 78 75 73 72 72 73 71 69 66 63 64 69 69 63 61 61 61 60 58 59 62 58 50 50 51 49 47 46 45 47 47 45 46 48 47 48 48 47 48 50 49 46
23 21 19 18 18 18 19 19 18 18 19 21 24 27 31 34 37 41 45 49 53 56 56 60 68 71 69 70 73 72 72 78 81 84 87 89 89 88 88 87 88 89 86 83 82 79 75 74 74 75 75 72 68 66 64 64 68 70 64 58 57 58 57 57 58 61 61 56 51 54 54 50 48 48 46 47 48 45 44 45 47 49 49 50 52 52 50 48
21 18 16 15 15 16 16 17 17 16 17 18 21 24 28 31 35 40 43 46 51 54 56 60 66 68 68 71 73 71 73 77 78 81 85 86 86 87 87 86 86 85 81 80 79 76 76 78 77 75 71 65 63 64 62 62 66 63 58 54 54 55 54 54 57 60 60 56 56 58 55 49 49 50 46 47 49 46 43 43 45 48 48 49 51 52 52 51
20 17 15 14 13 13 14 15 15 14 15 16 18 21 25 28 32 36 40 45 51 54 57 62 65 67 69 72 72 71 73 75 76 82 86 86 87 88 88 87 88 87 86 83 79 78 79 77 73 67 62 61 63 63 60 61 63 60 55 53 54 55 53 52 56 59 59 59 60 58 54 51 52 50 47 48 49 47 45 44 45 46 45 46 49 51 51 51
21 18 16 14 12 10 11 12 12 12 12 14 15 18 22 25 29 34 38 44 49 52 57 61 63 65 69 71 71 70 71 72 76 83 86 86 86 86 86 86 87 89 88 84 80 80 77 71 66 62 62 64 65 63 61 63 64 59 55 55 56 55 51 51 57 60 61 62 61 59 58 56 53 50 48 48 49 51 49 47 48 49 46 47 49 49 50 51
22 20 17 13 10 8 8 8 8 9 10 12 13 15 19 23 27 32 37 42 47 52 56 58 60 64 68 70 70 71 72 72 76 81 82 83 84 84 84 84 85 85 84 82 80 79 74 70 67 64 65 65 64 64 62 62 62 56 54 56 55 54 52 52 56 59 61 63 62 61 60 56 53 51 50 49 48 49 47 46 49 51 50 51 50 48 49 51
24 20 17 12 9 6 5 5 5 7 8 10 11 13 17 20 24 29 35 40 45 50 53 55 58 62 67 69 70 72 72 71 74 78 78 80 83 84 85 85 84 84 82 79 77 77 74 71 66 65 66 65 65 65 61 61 61 54 53 56 56 57 56 53 53 56 59 60 61 62 60 57 55 53 52 50 48 47 46 47 51 52 53 54 53 53 53 53
26 22 18 13 9 6 3 2 3 4 6 9 11 13 16 19 23 27 33 38 43 48 51 54 57 61 66 68 70 72 70 68 73 77 77 79 82 84 84 84 84 84 81 76 75 77 75 70 67 67 68 65 64 64 60 60 60 53 52 57 58 57 53 50 50 52 54 56 59 60 60 58 57 55 54 53 51 48 46 49 53 54 53 54 54 54 55 54
28 24 19 15 11 7 4 1 1 3 5 8 11 13 16 20 23 27 31 36 41 45 50 54 58 61 65 67 69 71 68 67 72 75 75 78 81 83 84 83 83 82 78 76 77 78 74 71 70 69 67 64 64 63 59 59 57 51 53 57 57 53 50 48 49 50 52 54 57 59 58 56 57 58 57 56 55 51 46 48 52 53 52 52 52 53 54 54
28 24 19 16 12 8 5 3 3 5 6 7 10 13 15 19 23 27 30 34 39 45 50 54 57 59 63 68 70 69 67 67 70 71 72 76 80 82 84 83 81 79 76 77 79 77 73 72 70 69 68 67 64 60 57 57 55 51 52 55 54 51 50 49 48 50 51 51 55 57 56 56 59 59 57 57 58 56 51 50 52 52 52 52 53 54 55 55
29 24 20 16 13 9 6 4 5 6 7 7 9 12 14 16 20 26 30 33 37 43 48 51 54 56 60 66 70 69 67 67 69 69 71 76 79 81 83 83 80 78 78 79 79 76 73 70 69 70 68 62 58 57 57 57 54 52 54 56 54 51 51 49 48 47 46 48 53 55 54 57 60 59 56 56 59 60 57 55 55 53 53 52 51 50 51 53
29 24 20 16 13 10 7 5 6 7 8 8 8 11 14 16 18 23 28 33 37 41 46 50 52 54 57 62 66 68 68 69 69 69 72 76 79 80 81 80 79 79 80 79 77 73 71 68 67 67 63 57 56 59 58 56 55 55 57 56 53 51 50 48 46 44 44 47 52 53 55 59 60 59 56 52 55 59 59 57 58 55 53 53 53 50 51 53
30 25 20 16 13 10 8 6 6 7 8 8 8 9 12 15 19 22 26 31 36 40 44 48 50 52 56 60 63 67 70 70 69 69 71 74 76 78 78 78 79 79 79 77 75 72 71 69 67 65 61 59 60 61 60 58 57 57 56 54 52 51 50 48 47 46 46 49 52 53 55 57 57 58 56 51 52 56 55 55 56 56 55 56 58 57 56 56
31 27 22 17 14 11 9 8 8 8 9 9 9 9 10 13 17 22 26 29 33 37 42 46 50 52 55 59 63 66 69 69 68 69 71 72 73 75 77 78 79 78 77 75 74 72 70 69 67 65 62 61 62 62 59 57 56 54 52 52 52 52 51 50 50 50 50 50 52 53 54 54 54 56 57 55 53 54 56 55 56 57 57 58 60 59 58 57
31 27 22 18 15 13 10 10 10 9 10 10 10 11 11 13 16 21 27 31 33 36 40 45 49 52 55 59 63 66 68 68 69 72 73 73 74 76 78 80 80 79 76 75 73 70 68 67 65 63 61 59 58 55 51 50 52 52 50 51 53 52 51 50 49 48 47 48 50 52 53 53 55 56 57 56 55 56 58 58 57 58 57 56 57 58 59 58
30 27 23 19 16 14 12 12 11 11 11 11 11 12 13 15 17 21 26 32 36 39 42 45 48 51 53 58 64 67 68 69 71 72 72 74 77 79 80 80 79 78 77 75 73 70 68 67 64 62 61 59 56 52 49 51 52 51 50 50 52 52 49 47 46 45 46 47 48 51 53 52 53 55 56 55 56 57 58 58 58 58 58 56 55 56 58 57
30 26 22 19 16 14 14 14 13 13 13 12 13 14 15 16 18 20 24 29 35 39 42 45 47 50 52 58 65 69 71 71 71 71 71 74 77 79 80 79 77 77 77 75 72 68 67 66 63 62 63 60 57 55 54 53 51 50 50 50 51 51 48 45 45 45 48 48 48 50 52 50 51 52 51 50 52 55 57 58 58 58 59 59 56 55 55 55
28 25 21 18 16 16 16 16 15 15 14 14 13 15 17 18 18 21 24 28 33 38 42 45 47 49 53 58 65 70 72 70 69 71 72 73 75 78 78 77 76 76 75 72 68 65 65 63 62 63 61 58 58 58 56 53 52 51 50 49 49 49 46 45 46 47 48 48 48 50 51 50 50 50 48 47 50 54 56 57 57 56 57 58 57 57 57 56
26 23 20 17 16 17 18 18 17 18 17 16 15 15 17 19 19 21 23 27 32 36 41 45 48 50 53 58 64 68 70 69 69 72 73 74 75 75 73 72 74 74 72 69 66 64 63 62 62 62 61 59 61 59 56 55 54 52 49 48 49 49 48 48 48 47 48 47 47 49 49 49 49 48 48 49 50 51 53 54 55 55 55 56 56 57 57 57
25 22 19 16 15 18 20 19 19 21 20 19 18 16 17 19 20 21 22 25 29 33 37 42 47 50 54 57 62 65 68 70 72 73 73 72 71 68 66 67 70 70 68 67 65 63 63 63 63 63 62 61 61 58 56 56 55 52 51 51 52 51 49 48 46 46 46 46 45 47 48 48 47 46 47 49 49 50 51 52 53 53 53 54 55 55 55 55
25 22 18 15 15 18 21 20 20 23 23 21 21 19 18 20 21 21 22 24 27 32 35 39 43 48 53 57 61 66 70 73 74 72 70 67 65 63 63 67 67 65 63 62 62 64 65 65 64 63 61 60 59 56 55 56 55 52 51 51 50 48 47 46 46 46 46 45 45 47 47 47 48 48 48 47 47 50 52 53 53 52 51 51 51 53 54 55
24 22 18 15 15 18 20 20 22 25 25 24 24 22 21 20 21 23 24 23 25 29 34 38 41 43 48 54 60 66 72 74 73 69 65 63 61 62 65 67 65 62 60 60 61 64 66 64 62 61 59 57 56 55 55 56 53 49 47 47 47 46 46 46 46 45 45 46 46 47 47 47 47 48 48 46 47 49 52 53 53 53 53 52 51 51 52 53
Wind_Direction
265 262 260 258 257 256 255 253 251 250 249 249 248 246 244 243 242 241 240 239 237 236 236 236 236 235 235 234 234 234 234 235 235 235 234 235 235 234 236 237 236 237 238 238 238 237 237 237 237 238 238 239 240 240 241 241 241 243 244 245 245 245 245 246 247 249 249 248 250 253 256 259 256 251 251 258 260 261 264 265 269 269 267 270 272 270 268 270
266 264 261 259 257 255 254 253 252 250 248 248 248 247 246 244 243 242 241 240 238 237 236 235 236 235 235 235 234 234 234 234 234 234 234 235 235 234 234 235 236 236 237 238 238 237 237 237 238 238 239 239 240 240 241 242 242 243 245 245 245 245 245 245 246 247 247 249 253 255 254 252 253 253 253 258 260 263 264 265 270 270 269 271 272 271 270 270
266 265 263 260 258 255 253 252 251 250 249 247 246 246 246 245 244 242 241 240 239 238 237 235 235 235 235 235 235 234 234 234 233 233 233 235 235 234 234 235 235 235 236 237 237 238 238 238 238 239 240 240 240 241 242 242 242 243 244 245 246 245 244 245 245 246 249 253 255 253 249 250 254 257 255 258 262 263 264 266 270 270 270 271 269 270 271 271
267 265 264 261 259 256 254 252 251 250 249 248 246 245 245 245 245 244 242 241 240 239 238 236 236 235 235 234 234 234 234 233 232 232 233 234 234 234 235 235 235 235 235 236 237 238 238 239 239 239 240 240 241 241 242 242 242 243 244 244 244 244 244 244 245 248 252 254 255 254 250 249 254 259 259 258 261 263 266 270 271 270 270 269 268 268 269 269
267 266 264 262 260 257 254 252 250 249 248 248 246 245 244 244 244 244 243 242 240 239 238 237 236 235 235 234 234 234 233 233 232 232 233 234 234 234 235 235 236 235 236 236 237 237 238 239 239 239 240 240 241 241 242 243 242 243 244 244 243 244 244 245 247 250 253 253 254 254 251 251 254 258 259 258 260 265 269 269 267 267 268 269 269 269 270 270
268 266 264 262 260 258 254 251 250 248 247 247 246 245 244 243 242 243 243 242 241 240 238 238 237 236 235 234 234 233 233 233 232 232 233 234 233 233 234 235 236 236 236 236 237 237 238 238 239 239 240 240 241 241 242 243 242 243 244 244 244 245 245 247 248 249 251 253 253 253 253 254 255 256 258 259 262 266 267 267 265 266 269 271 271 272 273 274
269 267 265 262 260 258 255 252 249 248 246 245 245 245 244 243 242 241 241 242 241 241 239 238 237 237 236 235 234 233 233 233 231 231 232 233 233 233 233 233 234 235 236 237 237 237 237 238 238 238 239 240 241 241 241 242 242 243 244 244 245 246 246 248 249 248 250 252 252 254 254 254 255 256 258 260 263 265 265 266 266 267 269 271 272 274 276 277
269 267 265 262 260 257 255 252 249 247 246 245 244 244 243 243 242 241 240 240 240 241 240 239 237 237 236 236 235 233 233 233 231 230 232 233 233 233 233 233 233 234 235 236 237 237 237 237 237 238 238 239 240 240 240 241 242 242 244 245 245 247 247 248 250 248 249 251 252 253 253 254 255 256 258 260 262 264 265 265 265 268 270 270 273 276 279 281
268 266 263 261 259 256 254 251 249 246 244 244 243 243 242 242 241 241 240 239 239 240 240 240 238 237 237 236 235 234 233 233 231 230 232 233 233 233 233 233 233 233 234 235 236 237 237 238 238 238 238 239 239 239 240 241 242 242 244 245 245 247 248 248 250 248 248 251 252 253 253 254 254 255 257 260 261 262 264 264 264 269 270 272 276 279 281 284
268 265 262 259 257 255 253 251 248 246 243 242 242 242 241 241 241 240 240 239 238 238 239 239 239 238 237 236 235 235 234 234 232 230 232 233 233 233 232 232 233 233 234 234 235 236 237 238 238 238 238 238 239 239 240 240 242 242 243 245 245 247 248 248 249 249 248 250 252 252 253 253 254 256 257 259 259 259 260 261 264 267 268 274 281 281 283 287
268 264 261 257 255 253 251 250 248 245 243 241 241 241 241 240 240 240 239 239 238 238 238 238 239 238 238 237 236 235 235 235 233 230 232 233 233 232 231 232 232 233 234 234 235 235 236 237 237 238 238 238 239 239 240 240 241 242 242 245 246 246 247 248 248 248 248 249 251 252 252 253 254 256 257 257 259 258 257 258 262 265 267 274 278 280 282 285
266 263 260 256 254 251 249 248 247 245 243 241 240 240 240 240 240 240 239 239 239 238 238 238 238 238 238 237 236 235 235 235 233 230 230 231 232 232 231 231 231 232 233 233 234 234 235 236 236 237 238 238 239 239 240 240 241 242 242 244 245 244 246 247 248 248 249 249 251 251 252 254 255 256 256 256 258 258 257 258 261 266 270 275 277 280 281 282
265 262 259 256 253 250 248 247 245 244 242 241 239 239 239 239 239 239 239 239 238 238 238 238 237 237 237 237 236 236 235 233 232 230 230 230 230 231 231 230 230 231 231 232 233 234 234 235 236 236 237 238 238 239 240 239 241 242 241 243 245 245 246 248 248 249 249 249 250 252 253 254 254 255 255 255 256 256 257 260 263 269 275 278 281 280 272 269
265 262 259 256 254 251 248 245 244 242 241 239 238 238 237 237 238 239 239 239 238 238 238 238 237 236 236 236 236 236 235 233 232 231 231 230 230 230 231 230 231 231 231 231 232 233 234 234 235 235 236 237 238 239 239 239 240 242 242 243 245 245 246 247 248 248 249 249 250 251 252 253 253 254 255 256 255 255 256 258 263 268 268 268 270 265 256 253
264 262 259 257 255 252 249 246 244 242 240 238 237 236 236 236 236 237 237 238 238 237 237 237 237 236 235 235 236 236 235 233 232 231 231 230 230 230 230 230 230 231 231 231 231 232 233 234 234 235 236 237 238 239 240 240 240 242 243 243 246 245 245 247 247 247 248 248 249 250 252 252 252 253 254 255 256 253 248 245 245 246 244 245 246 246 249 252
264 262 259 257 255 253 250 247 245 243 242 239 238 236 236 235 235 235 236 236 237 237 237 237 237 236 234 234 236 236 235 233 232 231 230 230 230 230 229 229 230 231 231 231 231 232 232 234 234 235 235 236 237 238 239 239 241 243 243 243 245 245 245 246 246 246 247 248 248 250 250 251 251 250 250 251 252 248 241 238 233 228 229 230 231 237 243 243
264 262 259 257 255 253 251 249 246 244 243 241 239 238 236 236 235 235 235 235 236 236 236 236 236 236 234 233 234 235 234 233 232 231 230 230 230 229 229 228 229 230 231 231 231 232 232 233 233 234 235 235 236 237 238 239 242 243 244 243 244 244 244 245 245 245 246 247 247 247 248 248 249 249 249 248 249 245 239 237 229 222 223 222 224 231 234 232
265 262 260 258 256 254 252 249 247 245 244 242 241 239 238 237 236 236 235 235 236 236 236 236 236 235 234 233 233 233 233 232 233 232 230 230 230 230 229 228 228 229 230 231 231 232 232 232 233 233 234 234 236 237 238 240 241 242 242 241 242 241 240 242 242 241 243 244 242 243 246 247 247 248 248 246 246 243 237 234 227 220 221 222 227 232 231 231
265 263 260 258 256 254 252 250 248 246 244 243 242 240 239 238 237 236 236 236 236 236 235 235 235 234 234 233 233 233 233 233 233 233 231 230 229 229 229 228 228 228 229 230 231 232 232 233 233 233 234 235 237 238 237 237 237 237 237 237 237 237 236 240 240 235 238 241 238 240 244 245 246 245 244 243 242 240 235 231 224 220 223 224 229 234 232 231
267 264 262 259 258 256 254 252 250 248 246 244 243 241 239 238 237 237 237 236 236 236 236 235 235 235 234 234 233 233 232 232 232 232 231 229 227 227 227 227 227 227 228 229 230 232 232 233 233 233 235 235 236 236 234 234 234 234 234 234 234 235 234 238 238 231 233 240 237 237 242 244 242 240 239 239 238 237 233 229 225 222 222 223 227 232 233 233
271 268 264 262 260 258 257 255 253 251 249 246 244 242 241 239 238 237 237 236 236 236 236 236 236 236 235 235 234 233 232 231 231 231 231 229 227 226 226 226 226 226 227 228 229 231 232 232 232 232 233 232 232 232 231 232 233 233 233 233 233 233 233 235 237 229 230 238 236 235 242 242 235 235 236 234 232 232 228 225 226 226 225 226 229 232 234 235
276 272 269 265 263 260 258 257 255 254 252 250 247 245 243 242 241 240 238 236 236 235 235 235 235 236 236 235 235 234 233 232 231 231 231 231 229 227 226 226 226 226 226 227 228 230 231 232 232 232 232 231 230 229 229 230 231 231 231 231 232 233 233 233 236 231 228 237 237 235 240 237 230 232 232 229 226 224 221 219 222 225 227 231 235 236 236 237
281 276 272 269 266 263 260 258 256 255 253 252 250 248 246 245 243 242 239 237 236 235 234 234 234 235 235 234 235 234 233 232 231 230 230 230 230 228 226 226 226 225 225 226 228 229 231 231 231 232 231 230 229 229 229 229 230 230 230 230 231 232 233 233 235 232 226 235 237 235 237 232 228 229 227 225 222 221 221 220 221 223 224 230 240 242 240 240
285 279 275 272 269 266 263 259 256 254 252 250 249 248 247 246 244 242 239 237 236 235 234 233 233 233 234 233 233 233 232 231 230 229 229 229 229 227 225 224 224 224 225 225 226 227 227 227 229 230 230 230 230 229 229 230 230 230 229 229 229 231 232 233 235 230 223 232 237 234 233 228 226 226 223 221 219 220 223 221 221 223 222 223 236 245 244 242
288 282 278 275 272 270 266 262 258 254 251 249 247 246 245 245 243 240 238 236 235 234 233 232 231 231 232 231 230 230 230 230 229 228 227 228 228 227 224 223 222 223 223 223 223 224 224 225 226 228 229 230 230 230 230 231 231 230 230 230 229 230 231 232 234 229 224 234 237 233 229 225 223 224 221 218 217 219 220 220 219 220 219 219 224 239 245 244
291 285 282 278 274 271 268 264 260 255 252 249 246 244 243 242 241 238 235 232 231 231 231 230 229 229 229 228 227 228 228 228 227 227 226 226 226 226 224 222 220 220 221 221 221 221 221 224 225 227 227 228 229 229 230 231 231 230 230 230 229 229 230 232 233 226 224 233 234 230 227 222 219 221 220 217 216 216 214 214 217 217 218 219 220 227 239 246
293 288 283 279 275 272 269 266 262 257 252 247 244 242 240 239 238 235 231 227 226 227 227 226 226 226 227 226 224 224 224 225 225 224 224 224 225 224 223 222 219 218 219 220 220 220 221 223 225 226 227 228 228 229 230 231 231 229 229 230 228 229 229 232 232 224 224 231 230 228 227 222 218 218 218 216 217 217 212 212 215 216 219 222 223 228 237 246
299 294 287 281 278 274 270 266 262 257 252 246 241 238 236 235 234 232 228 222 222 224 223 221 222 223 225 223 221 221 221 221 222 221 221 221 222 223 222 221 219 217 218 219 219 220 221 223 224 226 227 228 229 229 229 231 229 227 229 229 227 228 229 230 230 223 225 231 229 227 227 224 219 218 217 215 217 218 215 216 216 215 221 225 229 234 238 241
307 304 297 290 286 280 274 267 261 256 250 246 240 236 233 232 231 229 225 218 217 221 219 217 218 221 222 220 218 219 218 218 218 217 217 218 219 220 219 218 217 216 217 217 217 218 219 221 222 223 225 227 229 229 229 229 227 226 229 229 227 229 229 229 228 223 226 229 227 226 227 225 221 220 219 217 219 219 218 219 217 215 220 224 226 226 226 233
316 312 305 299 294 288 280 272 264 255 248 243 238 234 231 229 227 225 221 214 214 217 215 213 215 217 217 216 216 217 216 216 216 215 215 215 216 216 215 215 214 213 214 215 215 216 217 219 221 222 224 226 227 227 229 229 227 227 229 228 228 229 229 228 226 223 226 229 228 227 227 226 223 220 219 219 220 220 221 221 219 216 216 216 219 223 227 235
320 314 307 302 298 292 284 275 267 257 247 241 236 231 228 225 222 220 217 211 212 214 212 210 213 214 212 212 214 214 213 214 214 214 214 215 214 213 213 212 211 211 212 213 215 216 216 218 219 220 222 223 224 226 227 227 226 228 228 228 228 229 228 227 225 224 227 229 228 230 229 227 225 222 219 220 220 219 222 225 223 222 221 221 225 231 233 236
322 316 310 306 300 293 284 276 268 257 246 240 234 228 225 222 218 216 214 210 209 211 209 209 212 212 210 209 212 211 210 211 212 212 213 214 214 213 212 211 211 211 211 213 215 216 217 218 218 220 222 223 225 227 227 226 227 230 230 230 232 232 230 228 226 226 228 228 227 230 229 226 227 225 220 220 223 221 223 227 228 229 230 231 233 234 233 233
330 324 321 315 305 294 283 274 265 254 243 236 232 227 223 220 216 214 211 208 207 206 205 206 209 209 207 208 210 208 208 208 208 209 211 211 211 211 210 209 208 208 210 212 214 215 216 218 219 221 223 225 226 228 228 228 231 233 231 231 234 235 232 229 228 228 228 227 227 229 230 226 227 227 221 220 224 224 225 228 230 232 234 236 237 236 235 235
338 336 335 325 310 295 281 269 259 248 238 232 229 225 220 217 215 212 208 206 205 203 202 204 206 205 204 205 206 207 208 206 204 206 208 208 208 208 207 207 206 205 206 208 210 213 216 218 221 223 224 224 226 227 227 229 232 232 230 229 232 234 231 229 229 228 228 227 227 229 230 227 227 227 223 222 223 223 223 225 230 233 235 236 237 237 237 237
346 345 343 331 316 301 282 265 253 241 231 225 224 223 217 213 212 209 207 206 203 201 202 203 204 202 202 203 203 204 207 205 203 205 205 205 205 206 206 205 205 206 207 206 207 211 214 216 219 221 222 222 224 225 226 227 230 230 228 227 230 232 230 228 228 227 226 227 226 227 228 228 228 226 225 225 225 225 224 225 231 234 234 235 237 238 239 240
353 350 345 335 325 309 284 263 248 234 223 214 213 217 215 211 209 207 206 204 202 201 201 202 202 201 201 201 199 201 204 203 203 205 204 203 203 203 204 205 205 206 207 207 208 210 211 213 214 217 219 221 223 224 225 227 230 229 227 228 230 231 229 228 229 229 228 227 227 227 228 229 229 228 228 228 228 228 227 225 229 233 235 238 239 239 239 240
357 354 348 342 338 322 295 268 244 226 211 201 199 206 209 207 206 205 204 203 201 200 200 200 201 200 200 199 197 199 202 201 201 204 203 201 201 201 202 202 203 205 206 207 209 211 211 211 212 215 218 220 222 224 224 226 229 228 227 228 229 230 229 228 229 230 230 229 229 229 229 229 230 230 230 228 228 229 228 229 232 234 237 240 241 241 241 241
359 357 353 351 352 348 334 298 236 207 195 190 187 192 197 199 200 202 202 201 200 199 197 198 200 200 198 197 196 198 200 199 200 202 201 200 200 200 201 201 202 204 204 204 208 211 211 210 210 213 216 218 221 224 224 226 228 226 225 228 229 230 231 230 231 233 232 231 232 231 230 230 231 232 232 230 229 229 229 232 236 237 239 242 243 244 244 244
2 358 356 356 359 4 13 20 160 162 167 179 181 183 189 192 192 196 199 199 197 196 196 197 199 199 197 194 195 197 196 196 200 201 199 199 199 199 199 200 201 203 202 203 207 209 209 209 209 212 215 216 219 222 222 225 228 227 225 229 231 231 232 232 232 234 233 231 232 232 231 231 233 233 234 233 232 230 229 234 239 240 241 242 243 245 247 249
3 0 359 360 1 9 25 61 110 130 141 164 176 177 184 192 191 190 192 195 194 194 196 197 198 199 196 193 193 194 194 194 198 200 198 198 199 198 198 198 200 202 202 204 208 207 208 209 210 212 214 215 217 220 222 225 228 227 227 230 232 231 231 232 231 232 232 232 233 233 231 231 233 233 233 236 235 232 232 236 239 239 240 241 243 245 248 249
3 1 3 4 5 12 28 65 103 122 132 149 169 172 176 188 194 190 187 189 191 193 195 197 198 198 196 194 191 189 190 193 196 198 197 198 198 198 198 197 198 200 202 205 208 206 207 209 210 214 216 217 218 220 221 225 226 225 225 228 231 231 231 233 233 234 235 234 235 234 231 231 232 232 232 235 237 235 234 235 237 238 240 242 242 243 244 244
4 2 6 9 11 17 30 64 96 116 127 137 157 169 170 178 188 190 186 185 187 191 194 195 196 196 196 195 190 185 187 191 194 195 195 197 197 197 197 197 197 200 202 206 207 206 207 209 211 215 217 217 219 219 220 222 224 223 224 227 229 229 231 232 234 235 234 234 235 234 231 231 231 231 231 232 236 237 235 236 238 238 238 240 240 241 244 245
6 4 8 13 17 24 37 60 85 103 116 127 143 159 168 173 179 183 184 185 185 188 191 191 193 194 194 193 190 186 186 189 191 193 195 196 196 195 196 196 198 201 203 205 206 205 207 208 209 213 215 214 217 218 219 220 221 223 225 228 229 229 229 230 230 231 230 230 232 232 232 233 233 233 231 230 234 237 235 234 237 237 235 238 241 242 244 246
8 6 9 16 22 30 43 61 77 92 105 118 131 144 158 168 175 176 178 181 183 185 188 188 190 192 192 191 189 187 187 188 188 191 193 195 195 195 195 196 199 201 203 205 206 205 207 209 210 211 213 214 217 218 219 221 223 225 227 228 230 230 230 230 230 231 231 231 233 233 233 233 233 233 232 231 233 237 236 234 235 237 237 239 243 243 243 245
11 9 11 19 27 36 49 65 77 89 101 113 124 134 147 159 170 175 174 175 177 180 184 187 188 190 191 188 187 187 187 186 187 190 191 192 194 195 196 197 199 201 202 205 206 204 206 209 211 213 213 216 220 223 226 228 228 229 229 228 230 232 232 232 234 236 238 237 238 238 236 233 232 233 233 233 233 236 239 238 237 239 241 241 243 244 245 247
14 12 14 22 31 42 55 68 79 89 99 109 121 130 140 151 162 172 176 175 175 176 179 184 188 189 189 187 185 187 188 187 188 189 189 190 193 195 197 198 199 200 202 204 205 204 206 208 208 211 213 214 217 220 223 226 228 230 230 229 232 234 233 234 234 236 238 237 236 238 238 235 234 234 234 234 235 237 240 241 240 241 242 242 242 244 247 248
16 14 17 26 35 48 60 70 80 88 96 107 120 128 135 145 156 166 174 176 175 175 176 180 185 187 187 187 185 186 189 189 188 188 189 191 193 195 197 198 198 201 202 203 203 203 207 208 208 210 212 213 214 216 218 221 225 227 228 228 231 234 233 233 234 234 235 234 233 235 237 236 235 236 236 235 237 238 239 240 241 242 244 244 244 245 247 249
17 16 20 29 39 53 62 70 79 86 91 101 113 125 133 140 149 160 169 173 174 174 175 177 181 184 186 187 186 186 188 188 187 187 189 191 193 195 196 196 198 201 203 203 202 203 207 209 209 212 213 213 214 215 216 219 222 224 225 226 230 233 233 232 233 233 234 234 233 234 236 236 234 234 235 235 236 238 239 241 243 244 246 247 246 246 248 250
19 17 22 33 44 59 66 70 78 84 87 94 103 116 129 135 142 152 163 170 172 174 175 176 179 182 184 187 189 187 186 187 188 189 189 190 193 195 194 195 198 201 201 201 201 202 207 209 210 212 213 213 215 216 215 218 221 222 223 224 227 230 229 229 231 233 235 236 235 235 235 236 235 234 235 236 238 240 241 242 244 245 246 247 248 249 250 251
21 19 22 35 49 64 69 71 78 83 85 91 97 106 120 128 135 145 156 165 168 171 174 175 178 181 182 185 189 187 186 188 190 191 190 190 191 193 193 196 200 201 200 200 199 201 205 208 210 212 213 213 216 217 217 219 222 222 222 223 226 229 229 230 231 234 236 237 237 236 235 235 236 234 233 235 239 242 242 243 244 245 247 249 250 251 252 252
24 23 25 38 55 68 73 76 82 84 85 91 95 101 113 122 129 138 148 158 164 167 170 174 179 182 181 183 186 187 187 190 192 191 190 188 188 189 192 197 200 201 201 200 199 201 205 207 209 212 213 214 215 216 218 221 223 224 225 226 229 231 233 233 233 234 235 236 236 236 236 236 236 235 234 233 236 240 242 243 244 245 245 248 250 251 252 253
28 27 29 41 60 74 80 83 85 86 88 91 94 99 106 114 127 136 141 149 158 163 168 172 177 182 182 182 185 187 189 192 192 190 187 186 186 187 192 197 198 198 200 200 201 204 207 207 209 211 212 213 215 216 218 221 224 225 227 228 230 233 234 235 236 236 236 236 236 236 236 235 235 236 236 233 233 238 241 243 244 245 245 248 249 251 253 254
Height
10600 10600 10600 10599 10600 10601 10602 10604 10606 10608 10609 10611 10612 10615 10617 10619 10622 10625 10629 10631 10634 10637 10640 10643 10646 10649 10651 10655 10658 10663 10667 10671 10677 10683 10693 10693 10692 10702 10705 10707 10712 10714 10718 10723 10726 10730 10733 10736 10739 10741 10744 10748 10752 10756 10757 10761 10764 10765 10768 10774 10782 10787 10792 10791 10789 10791 10793 10792 10794 10809 10822 10824 10815 10807 10812 10814 10814 10814 10821 10833 10834 10836 10835 10833 10836 10836 10838 10837
10589 10589 10589 10589 10589 10590 10591 10593 10595 10597 10599 10601 10603 10605 10607 10610 10613 10616 10619 10622 10626 10629 10632 10635 10637 10640 10643 10647 10651 10655 10659 10663 10670 10678 10685 10682 10685 10696 10697 10698 10704 10708 10712 10715 10719 10722 10725 10729 10732 10735 10739 10743 10747 10750 10751 10756 10761 10763 10764 10769 10778 10783 10786 10785 10783 10783 10783 10789 10798 10810 10818 10815 10802 10799 10814 10812 10808 10813 10819 10832 10833 10830 10831 10832 10834 10833 10834 10834
10578 10578 10577 10577 10578 10578 10579 10581 10583 10585 10588 10591 10593 10595 10598 10600 10603 10606 10609 10613 10616 10619 10623 10627 10628 10631 10634 10638 10643 10647 10651 10657 10664 10670 10674 10673 10679 10687 10688 10691 10696 10701 10704 10707 10711 10714 10720 10723 10727 10731 10734 10738 10742 10745 10746 10751 10757 10759 10760 10766 10774 10776 10779 10778 10775 10775 10781 10794 10799 10803 10812 10808 10794 10796 10812 10810 10806 10810 10815 10831 10833 10825 10828 10829 10831 10831 10830 10831
10567 10566 10565 10565 10565 10566 10567 10569 10571 10573 10576 10579 10582 10585 10588 10590 10593 10596 10599 10603 10607 10610 10614 10618 10620 10622 10625 10630 10634 10638 10644 10649 10655 10662 10665 10666 10671 10677 10681 10685 10689 10694 10697 10700 10705 10709 10714 10717 10721 10725 10728 10732 10736 10739 10740 10747 10753 10754 10755 10763 10767 10767 10771 10769 10767 10775 10785 10795 10792 10796 10806 10800 10793 10795 10806 10806 10803 10807 10815 10831 10831 10821 10824 10826 10827 10829 10828 10828
10556 10555 10553 10553 10553 10553 10555 10556 10558 10561 10564 10567 10570 10574 10577 10580 10583 10586 10590 10593 10597 10600 10604 10608 10610 10613 10616 10621 10625 10630 10636 10639 10648 10657 10658 10658 10664 10670 10674 10678 10682 10687 10690 10694 10699 10703 10707 10711 10715 10719 10723 10727 10729 10734 10736 10741 10747 10747 10750 10757 10759 10759 10762 10761 10767 10780 10786 10790 10787 10790 10796 10794 10795 10795 10797 10800 10802 10808 10815 10828 10826 10816 10820 10823 10825 10827 10826 10826
10543 10542 10541 10540 10540 10540 10542 10543 10545 10548 10551 10554 10558 10562 10566 10569 10573 10576 10580 10583 10586 10590 10594 10597 10600 10604 10607 10612 10616 10622 10626 10632 10644 10651 10649 10651 10657 10663 10667 10671 10676 10679 10683 10689 10693 10697 10700 10703 10709 10713 10717 10720 10722 10728 10731 10734 10739 10741 10745 10750 10753 10752 10756 10759 10767 10780 10783 10782 10781 10783 10790 10792 10793 10791 10791 10795 10804 10809 10812 10822 10820 10813 10818 10821 10823 10824 10824 10825
10530 10528 10527 10527 10527 10527 10528 10530 10532 10534 10538 10541 10545 10549 10553 10558 10561 10565 10569 10573 10576 10579 10583 10587 10590 10594 10598 10603 10608 10613 10619 10627 10637 10641 10640 10643 10648 10655 10659 10663 10667 10671 10677 10682 10686 10689 10692 10696 10703 10707 10710 10712 10716 10722 10724 10726 10732 10736 10740 10744 10747 10746 10753 10759 10763 10778 10780 10773 10775 10779 10786 10788 10786 10787 10787 10794 10804 10806 10810 10818 10815 10813 10817 10818 10820 10822 10823 10823
10516 10515 10513 10513 10513 10513 10514 10516 10518 10521 10525 10528 10532 10536 10540 10545 10549 10554 10558 10562 10566 10569 10573 10576 10580 10585 10588 10594 10599 10606 10614 10618 10625 10632 10633 10636 10641 10648 10652 10655 10660 10664 10669 10674 10677 10680 10684 10690 10695 10699 10702 10706 10709 10713 10716 10720 10725 10732 10735 10738 10742 10740 10750 10757 10759 10774 10775 10766 10771 10776 10780 10783 10782 10783 10784 10793 10803 10802 10807 10813 10811 10813 10815 10815 10819 10820 10821 10822
10502 10501 10499 10499 10499 10499 10501 10502 10505 10508 10511 10515 10518 10523 10527 10532 10536 10541 10546 10551 10555 10558 10562 10565 10570 10575 10578 10585 10590 10600 10607 10606 10615 10627 10628 10630 10634 10640 10644 10648 10652 10656 10662 10667 10669 10673 10678 10684 10688 10691 10695 10697 10700 10704 10710 10715 10720 10728 10730 10730 10736 10737 10746 10754 10755 10768 10769 10762 10767 10771 10774 10777 10778 10779 10783 10793 10799 10799 10803 10807 10810 10813 10812 10813 10817 10818 10820 10820
10487 10486 10485 10485 10485 10485 10487 10488 10491 10494 10498 10501 10505 10509 10514 10518 10523 10528 10534 10539 10543 10548 10552 10555 10561 10565 10569 10575 10583 10593 10597 10596 10610 10624 10623 10623 10626 10630 10636 10640 10645 10650 10656 10660 10663 10668 10673 10676 10679 10681 10685 10689 10694 10699 10703 10712 10717 10721 10724 10724 10731 10736 10742 10749 10752 10760 10762 10760 10763 10766 10769 10771 10773 10776 10783 10791 10793 10797 10802 10803 10808 10810 10810 10812 10814 10816 10817 10818
10471 10471 10470 10471 10471 10472 10473 10474 10477 10480 10484 10488 10491 10496 10500 10505 10510 10515 10521 10526 10531 10536 10541 10545 10550 10556 10560 10566 10578 10586 10587 10590 10607 10620 10615 10612 10615 10620 10627 10633 10640 10645 10649 10653 10657 10661 10664 10667 10669 10672 10678 10683 10688 10692 10697 10708 10711 10713 10720 10721 10725 10733 10737 10742 10747 10753 10756 10757 10758 10760 10761 10765 10771 10774 10780 10788 10789 10794 10800 10803 10806 10806 10809 10811 10811 10814 10815 10815
10455 10455 10455 10455 10457 10458 10459 10461 10463 10467 10471 10475 10479 10482 10487 10492 10497 10502 10509 10514 10519 10525 10530 10534 10539 10547 10551 10560 10574 10576 10575 10585 10600 10607 10600 10598 10604 10610 10619 10627 10633 10637 10640 10645 10649 10652 10655 10658 10661 10666 10673 10676 10680 10686 10693 10703 10703 10706 10716 10716 10718 10728 10733 10736 10742 10747 10750 10753 10753 10753 10756 10764 10769 10769 10777 10785 10784 10789 10796 10801 10804 10803 10807 10809 10810 10812 10814 10815
10440 10440 10440 10440 10442 10444 10446 10447 10450 10454 10457 10461 10465 10469 10474 10479 10484 10490 10496 10501 10507 10513 10518 10522 10528 10537 10543 10556 10565 10561 10565 10578 10586 10589 10586 10589 10597 10604 10612 10620 10624 10627 10631 10637 10641 10644 10647 10650 10655 10661 10665 10669 10675 10681 10688 10696 10697 10701 10711 10710 10712 10725 10730 10732 10737 10741 10744 10748 10748 10748 10753 10761 10762 10763 10774 10780 10779 10786 10793 10797 10801 10802 10803 10806 10807 10809 10810 10812
10425 10425 10425 10425 10427 10429 10431 10433 10436 10439 10442 10447 10451 10456 10461 10466 10472 10477 10483 10489 10494 10501 10506 10510 10517 10526 10537 10550 10551 10548 10556 10566 10572 10577 10580 10584 10592 10597 10606 10613 10617 10620 10624 10630 10633 10636 10640 10643 10648 10654 10659 10666 10672 10676 10682 10690 10693 10695 10704 10707 10709 10721 10727 10726 10731 10735 10738 10742 10742 10743 10749 10754 10755 10761 10771 10772 10774 10784 10792 10797 10800 10799 10799 10802 10805 10804 10801 10801
10411 10411 10411 10411 10412 10415 10417 10419 10421 10424 10427 10432 10436 10441 10446 10452 10458 10464 10469 10475 10481 10487 10492 10498 10507 10517 10532 10540 10535 10536 10546 10557 10564 10568 10571 10578 10585 10591 10599 10605 10609 10613 10617 10622 10626 10629 10633 10636 10642 10649 10655 10663 10667 10671 10678 10685 10689 10692 10700 10706 10707 10715 10721 10719 10724 10730 10732 10734 10736 10739 10744 10746 10750 10759 10765 10767 10773 10782 10788 10793 10793 10790 10789 10792 10796 10794 10790 10791
10399 10398 10398 10398 10398 10400 10402 10405 10407 10409 10413 10417 10421 10426 10432 10438 10444 10449 10455 10460 10466 10473 10480 10488 10496 10507 10524 10527 10522 10526 10538 10549 10552 10553 10562 10572 10579 10585 10591 10597 10602 10605 10610 10614 10618 10622 10626 10631 10638 10644 10649 10657 10662 10667 10675 10680 10686 10691 10698 10703 10702 10708 10714 10713 10718 10724 10724 10726 10732 10736 10737 10738 10744 10753 10759 10763 10768 10773 10778 10779 10777 10776 10776 10779 10781 10780 10781 10785
10387 10386 10385 10385 10385 10387 10388 10391 10393 10396 10399 10403 10408 10413 10418 10424 10429 10434 10440 10446 10453 10459 10468 10476 10484 10498 10513 10512 10508 10515 10527 10536 10537 10542 10557 10566 10572 10577 10582 10589 10594 10598 10602 10605 10610 10616 10621 10626 10632 10639 10645 10653 10657 10662 10671 10680 10687 10690 10693 10697 10697 10703 10708 10706 10711 10718 10718 10721 10727 10729 10727 10729 10739 10749 10755 10758 10758 10762 10766 10766 10767 10767 10767 10770 10772 10771 10773 10776
10376 10375 10374 10373 10373 10374 10375 10377 10380 10383 10385 10389 10394 10399 10405 10409 10414 10420 10425 10432 10438 10446 10456 10464 10473 10486 10494 10493 10495 10502 10514 10524 10528 10539 10553 10559 10565 10570 10574 10583 10587 10591 10594 10597 10605 10611 10615 10619 10626 10634 10640 10648 10654 10662 10675 10682 10684 10684 10686 10690 10691 10697 10701 10698 10705 10714 10713 10714 10719 10721 10720 10724 10737 10746 10749 10750 10750 10755 10759 10759 10763 10764 10763 10766 10767 10767 10768 10770
10366 10364 10363 10362 10361 10361 10362 10365 10367 10370 10373 10375 10380 10386 10391 10395 10400 10405 10408 10415 10424 10434 10443 10450 10460 10468 10474 10480 10485 10493 10506 10518 10526 10536 10545 10551 10557 10562 10568 10576 10579 10582 10586 10592 10601 10605 10608 10614 10623 10632 10639 10649 10657 10665 10675 10675 10673 10674 10677 10682 10684 10690 10694 10692 10699 10710 10707 10704 10714 10717 10713 10721 10735 10741 10740 10741 10743 10749 10753 10755 10759 10761 10761 10763 10764 10765 10766 10768
10357 10355 10353 10352 10351 10350 10351 10353 10355 10357 10360 10363 10367 10372 10376 10380 10385 10387 10392 10403 10414 10422 10429 10438 10447 10453 10461 10471 10475 10484 10499 10511 10519 10525 10532 10538 10543 10549 10557 10563 10567 10573 10581 10590 10596 10598 10603 10612 10623 10633 10642 10649 10653 10658 10664 10662 10661 10665 10670 10676 10679 10684 10689 10688 10694 10706 10702 10698 10711 10712 10706 10720 10734 10733 10732 10735 10738 10742 10748 10751 10754 10756 10757 10758 10760 10762 10764 10767
10347 10345 10343 10342 10341 10341 10341 10342 10343 10345 10348 10352 10356 10360 10362 10365 10369 10373 10382 10395 10402 10409 10417 10427 10436 10441 10451 10460 10465 10477 10491 10501 10508 10513 10518 10525 10530 10538 10547 10552 10559 10569 10579 10585 10587 10590 10598 10611 10624 10633 10638 10641 10644 10648 10651 10652 10654 10659 10665 10671 10675 10680 10685 10686 10689 10699 10699 10696 10707 10706 10704 10722 10729 10724 10726 10730 10733 10738 10742 10746 10748 10750 10753 10755 10757 10759 10761 10763
10336 10334 10332 10331 10331 10331 10332 10332 10332 10334 10337 10341 10344 10348 10350 10352 10357 10365 10375 10385 10391 10399 10407 10415 10424 10431 10440 10450 10457 10469 10484 10493 10499 10502 10509 10517 10524 10534 10541 10546 10556 10566 10571 10574 10579 10587 10599 10614 10625 10627 10629 10631 10634 10638 10642 10644 10647 10652 10660 10666 10672 10677 10680 10683 10684 10694 10699 10696 10700 10701 10705 10719 10720 10718 10723 10724 10729 10734 10737 10741 10744 10745 10749 10751 10753 10755 10757 10759
10326 10323 10321 10320 10320 10321 10322 10322 10323 10325 10327 10330 10333 10336 10338 10342 10349 10356 10365 10374 10379 10387 10395 10404 10415 10421 10428 10440 10449 10460 10474 10481 10484 10490 10499 10509 10519 10529 10534 10542 10552 10558 10561 10568 10580 10591 10604 10616 10618 10616 10618 10622 10625 10631 10635 10638 10640 10647 10655 10662 10670 10673 10676 10679 10680 10691 10699 10691 10692 10699 10706 10714 10714 10714 10718 10720 10726 10729 10731 10736 10739 10740 10744 10748 10751 10752 10753 10755
10316 10312 10310 10310 10310 10310 10311 10312 10313 10315 10317 10319 10322 10325 10328 10331 10338 10345 10353 10362 10368 10376 10386 10394 10404 10411 10419 10429 10437 10449 10460 10464 10470 10480 10491 10502 10511 10518 10526 10534 10543 10548 10556 10569 10579 10589 10599 10605 10604 10604 10609 10613 10619 10626 10630 10631 10636 10644 10652 10659 10666 10669 10672 10674 10675 10688 10693 10684 10689 10699 10704 10709 10709 10709 10712 10717 10723 10724 10726 10732 10734 10737 10741 10744 10748 10749 10748 10749
10307 10304 10302 10301 10300 10300 10301 10302 10303 10305 10307 10309 10312 10315 10318 10321 10326 10334 10342 10351 10360 10368 10375 10381 10392 10401 10406 10413 10426 10440 10447 10452 10462 10473 10484 10494 10501 10509 10517 10524 10532 10542 10554 10565 10572 10581 10589 10591 10592 10596 10602 10609 10616 10621 10625 10627 10632 10641 10651 10658 10662 10664 10667 10666 10669 10684 10688 10682 10689 10697 10700 10704 10705 10705 10709 10714 10718 10720 10723 10728 10731 10735 10737 10739 10743 10745 10744 10743
10299 10296 10294 10293 10292 10292 10292 10293 10294 10297 10299 10301 10303 10306 10309 10312 10317 10324 10332 10341 10351 10357 10362 10371 10383 10389 10391 10401 10418 10427 10432 10443 10454 10463 10474 10483 10490 10499 10508 10515 10526 10539 10550 10557 10563 10571 10578 10581 10584 10590 10597 10605 10610 10614 10619 10622 10629 10641 10649 10652 10654 10657 10659 10657 10665 10682 10685 10680 10687 10691 10694 10699 10701 10703 10706 10710 10713 10716 10720 10725 10729 10732 10734 10735 10739 10741 10739 10736
10292 10289 10287 10285 10284 10284 10284 10285 10286 10289 10291 10292 10296 10298 10301 10304 10308 10315 10322 10331 10342 10347 10353 10363 10372 10377 10380 10390 10404 10411 10423 10436 10443 10453 10466 10475 10482 10492 10500 10510 10521 10533 10540 10546 10554 10564 10572 10576 10580 10587 10595 10599 10603 10609 10615 10619 10628 10641 10644 10643 10647 10650 10650 10653 10664 10678 10679 10676 10682 10687 10689 10695 10698 10700 10703 10706 10710 10713 10717 10721 10725 10729 10731 10732 10734 10735 10733 10729
10285 10282 10280 10278 10278 10278 10277 10278 10278 10281 10282 10284 10288 10290 10293 10297 10300 10306 10314 10325 10334 10336 10341 10351 10360 10365 10368 10379 10395 10405 10414 10422 10429 10444 10457 10464 10473 10484 10495 10507 10517 10526 10532 10541 10554 10564 10569 10572 10578 10585 10590 10593 10599 10607 10612 10615 10625 10635 10633 10633 10639 10640 10643 10651 10662 10673 10673 10670 10678 10683 10686 10691 10696 10698 10700 10703 10707 10710 10713 10715 10720 10726 10728 10728 10730 10729 10726 10723
10279 10277 10275 10273 10272 10272 10271 10271 10272 10274 10276 10277 10281 10283 10286 10290 10294 10299 10307 10318 10324 10324 10331 10343 10350 10353 10360 10375 10390 10395 10401 10409 10421 10434 10443 10451 10464 10476 10488 10499 10508 10516 10525 10537 10549 10555 10559 10565 10572 10577 10582 10589 10597 10603 10605 10610 10622 10627 10623 10626 10632 10634 10641 10649 10659 10668 10665 10663 10673 10680 10682 10688 10692 10694 10697 10701 10703 10705 10708 10710 10714 10721 10722 10722 10723 10721 10719 10720
10275 10273 10270 10268 10268 10267 10266 10266 10266 10268 10270 10271 10274 10277 10280 10283 10288 10294 10301 10310 10313 10314 10323 10333 10338 10344 10355 10372 10381 10384 10394 10406 10414 10423 10431 10441 10453 10464 10475 10485 10495 10506 10518 10530 10538 10543 10551 10559 10565 10572 10580 10585 10590 10594 10598 10609 10619 10617 10613 10621 10628 10632 10639 10646 10654 10660 10656 10659 10672 10677 10679 10684 10687 10690 10694 10697 10698 10701 10703 10705 10709 10713 10714 10716 10715 10713 10715 10718
10272 10269 10267 10265 10264 10263 10262 10262 10262 10263 10265 10266 10268 10271 10274 10277 10283 10289 10294 10298 10301 10307 10318 10326 10331 10337 10350 10364 10370 10376 10390 10398 10406 10417 10426 10433 10443 10454 10466 10477 10488 10499 10511 10522 10530 10538 10547 10554 10562 10569 10573 10576 10582 10588 10596 10606 10608 10603 10608 10620 10625 10629 10635 10642 10649 10651 10650 10661 10673 10674 10675 10679 10682 10686 10690 10692 10694 10698 10699 10701 10705 10707 10707 10709 10709 10709 10712 10715
10270 10267 10265 10263 10262 10261 10260 10259 10259 10260 10261 10262 10264 10267 10269 10273 10278 10281 10285 10291 10296 10304 10314 10321 10325 10333 10347 10357 10361 10372 10384 10390 10400 10414 10421 10431 10445 10457 10468 10479 10490 10500 10513 10522 10530 10540 10548 10553 10558 10561 10563 10572 10581 10587 10594 10599 10597 10599 10612 10622 10624 10627 10633 10640 10645 10646 10650 10662 10669 10666 10668 10674 10678 10681 10686 10688 10690 10694 10696 10698 10700 10700 10700 10702 10702 10704 10708 10709
10268 10266 10263 10261 10260 10259 10258 10257 10257 10258 10258 10259 10261 10263 10266 10269 10273 10276 10282 10288 10292 10299 10307 10313 10318 10329 10342 10349 10356 10368 10376 10382 10397 10410 10416 10428 10443 10454 10465 10476 10487 10500 10512 10521 10529 10538 10541 10543 10548 10553 10563 10575 10581 10584 10592 10596 10597 10603 10614 10621 10622 10624 10631 10638 10641 10644 10651 10658 10660 10658 10663 10671 10674 10676 10682 10686 10686 10690 10693 10694 10694 10694 10695 10697 10697 10698 10701 10703
10267 10265 10262 10260 10259 10258 10257 10256 10255 10256 10257 10257 10259 10261 10263 10267 10270 10274 10279 10282 10286 10294 10300 10305 10311 10322 10334 10341 10352 10364 10371 10380 10393 10400 10407 10422 10434 10444 10456 10467 10478 10488 10496 10507 10520 10527 10530 10537 10549 10560 10570 10576 10578 10582 10591 10594 10594 10601 10611 10616 10616 10618 10626 10634 10636 10640 10645 10648 10651 10655 10660 10666 10667 10671 10678 10681 10682 10685 10687 10689 10688 10688 10691 10692 10692 10694 10697 10699
10266 10264 10261 10260 10258 10257 10256 10255 10254 10255 10255 10256 10257 10259 10262 10264 10267 10272 10276 10279 10285 10292 10296 10301 10310 10320 10328 10336 10348 10360 10369 10380 10389 10391 10400 10416 10429 10442 10454 10465 10475 10482 10490 10502 10512 10517 10527 10542 10554 10561 10565 10568 10571 10578 10584 10585 10586 10596 10605 10608 10610 10614 10623 10628 10628 10632 10636 10639 10645 10651 10654 10658 10662 10668 10672 10674 10677 10678 10682 10685 10683 10683 10686 10686 10686 10690 10694 10696
10266 10263 10261 10259 10258 10256 10255 10254 10254 10254 10255 10255 10257 10259 10261 10263 10266 10270 10273 10278 10284 10290 10294 10301 10310 10317 10324 10332 10345 10356 10363 10374 10383 10389 10400 10415 10428 10441 10454 10464 10474 10482 10492 10503 10509 10516 10529 10540 10548 10553 10557 10562 10568 10572 10577 10580 10583 10594 10601 10604 10608 10612 10616 10620 10623 10626 10630 10635 10641 10646 10650 10655 10660 10665 10667 10669 10673 10674 10678 10681 10678 10678 10680 10680 10681 10685 10688 10691
10266 10264 10262 10260 10258 10256 10255 10254 10253 10254 10254 10255 10256 10258 10261 10263 10266 10269 10272 10277 10283 10288 10294 10302 10308 10315 10322 10332 10343 10351 10358 10370 10379 10388 10401 10415 10425 10436 10447 10457 10468 10477 10488 10501 10510 10517 10526 10535 10543 10548 10551 10558 10563 10566 10573 10577 10580 10591 10599 10601 10602 10603 10608 10615 10619 10622 10627 10632 10637 10641 10647 10652 10656 10659 10662 10666 10669 10670 10674 10674 10673 10673 10674 10675 10677 10680 10683 10686
10267 10264 10262 10260 10258 10256 10255 10254 10254 10254 10254 10255 10256 10257 10260 10262 10265 10268 10272 10276 10282 10288 10294 10300 10306 10312 10320 10331 10341 10347 10357 10371 10378 10385 10399 10412 10422 10433 10444 10454 10463 10472 10485 10499 10505 10511 10520 10530 10537 10539 10544 10553 10557 10561 10570 10573 10577 10589 10595 10593 10594 10599 10607 10615 10618 10620 10625 10630 10634 10638 10643 10648 10651 10655 10657 10660 10663 10666 10668 10668 10667 10667 10668 10670 10673 10675 10679 10681
10268 10265 10262 10260 10258 10257 10255 10254 10254 10254 10255 10256 10256 10257 10259 10261 10264 10267 10271 10276 10282 10289 10293 10298 10303 10309 10317 10328 10339 10347 10358 10372 10379 10386 10398 10410 10420 10430 10441 10452 10462 10471 10485 10494 10496 10505 10517 10525 10529 10533 10540 10547 10551 10557 10567 10572 10577 10587 10590 10588 10593 10600 10606 10611 10615 10618 10621 10625 10628 10632 10639 10644 10646 10649 10651 10653 10657 10661 10664 10663 10660 10661 10665 10667 10669 10671 10674 10676
10270 10267 10264 10262 10260 10258 10257 10256 10255 10255 10255 10256 10257 10258 10260 10262 10264 10266 10271 10277 10283 10288 10292 10296 10302 10309 10317 10325 10335 10348 10361 10371 10378 10388 10401 10411 10419 10428 10438 10449 10460 10471 10482 10486 10490 10502 10512 10518 10525 10530 10534 10540 10548 10559 10568 10571 10576 10584 10586 10587 10592 10598 10602 10606 10610 10612 10616 10621 10623 10626 10635 10638 10637 10641 10646 10647 10650 10655 10660 10658 10654 10657 10661 10662 10664 10666 10668 10669
10272 10269 10266 10263 10261 10259 10258 10257 10256 10256 10256 10257 10258 10259 10260 10263 10266 10268 10272 10277 10283 10288 10293 10298 10304 10311 10319 10324 10332 10346 10360 10370 10377 10388 10400 10408 10416 10426 10435 10446 10457 10467 10475 10478 10486 10500 10508 10515 10524 10526 10531 10544 10554 10560 10564 10566 10572 10578 10581 10582 10587 10594 10598 10601 10606 10609 10614 10617 10617 10622 10629 10628 10628 10635 10641 10642 10642 10647 10653 10652 10649 10652 10655 10656 10658 10660 10661 10663
10275 10271 10268 10265 10263 10262 10260 10259 10258 10258 10258 10258 10260 10261 10261 10264 10268 10271 10274 10278 10283 10288 10293 10299 10306 10313 10322 10330 10337 10346 10356 10366 10376 10386 10396 10403 10413 10425 10435 10447 10456 10462 10468 10475 10487 10500 10507 10515 10523 10526 10535 10547 10551 10553 10557 10561 10567 10571 10573 10578 10584 10589 10594 10598 10603 10606 10609 10611 10611 10615 10618 10617 10622 10630 10635 10636 10634 10637 10645 10646 10644 10646 10649 10649 10652 10654 10655 10657
10277 10274 10271 10268 10266 10265 10263 10262 10261 10260 10260 10260 10261 10263 10264 10265 10268 10272 10276 10280 10284 10289 10295 10301 10307 10314 10322 10332 10342 10349 10355 10364 10375 10385 10394 10403 10414 10426 10437 10447 10454 10458 10466 10475 10486 10496 10503 10511 10519 10524 10533 10540 10541 10545 10550 10555 10561 10565 10570 10577 10582 10586 10590 10595 10598 10599 10601 10603 10604 10608 10611 10614 10621 10626 10629 10631 10629 10630 10638 10640 10638 10640 10643 10644 10646 10649 10651 10653
10280 10277 10274 10271 10269 10267 10266 10265 10264 10263 10263 10263 10263 10265 10266 10268 10270 10273 10277 10282 10286 10291 10297 10302 10308 10314 10321 10331 10343 10351 10357 10365 10375 10384 10394 10404 10416 10427 10436 10443 10450 10457 10466 10475 10483 10493 10500 10509 10516 10521 10528 10533 10535 10540 10547 10554 10560 10565 10571 10576 10579 10582 10586 10590 10591 10593 10596 10598 10600 10603 10607 10611 10616 10619 10622 10626 10626 10626 10629 10633 10633 10634 10638 10640 10641 10644 10646 10647
10283 10280 10277 10275 10272 10270 10269 10267 10267 10266 10266 10266 10266 10267 10268 10270 10273 10275 10278 10282 10287 10293 10299 10305 10309 10314 10322 10331 10342 10352 10360 10367 10374 10380 10390 10402 10415 10424 10431 10438 10445 10454 10464 10472 10481 10491 10500 10508 10515 10521 10528 10534 10538 10546 10554 10559 10561 10564 10569 10572 10574 10578 10582 10585 10589 10592 10595 10597 10598 10598 10601 10606 10610 10612 10615 10620 10623 10621 10621 10626 10630 10629 10632 10635 10637 10638 10640 10643
10287 10284 10281 10278 10276 10273 10272 10270 10269 10269 10269 10269 10269 10270 10271 10273 10275 10278 10281 10283 10288 10293 10299 10306 10311 10317 10324 10332 10340 10351 10361 10367 10372 10380 10389 10398 10408 10417 10424 10434 10443 10452 10460 10467 10477 10489 10496 10502 10511 10519 10525 10531 10538 10546 10551 10553 10556 10561 10566 10569 10571 10574 10578 10582 10586 10590 10591 10593 10594 10593 10596 10602 10605 10607 10611 10615 10618 10618 10617 10620 10624 10623 10624 10628 10630 10632 10635 10638
10290 10288 10285 10282 10279 10277 10275 10273 10272 10272 10271 10272 10272 10273 10274 10276 10278 10281 10284 10287 10291 10295 10300 10307 10313 10320 10327 10333 10339 10348 10358 10365 10372 10381 10390 10397 10405 10413 10422 10433 10443 10450 10457 10465 10477 10488 10495 10501 10510 10515 10519 10527 10534 10539 10542 10546 10552 10557 10560 10564 10566 10570 10575 10579 10583 10585 10585 10587 10590 10589 10591 10598 10601 10602 10607 10611 10613 10613 10613 10614 10617 10618 10619 10621 10625 10627 10630 10633
10294 10291 10289 10286 10283 10280 10278 10277 10276 10276 10276 10276 10276 10276 10277 10278 10281 10284 10287 10290 10294 10298 10302 10308 10315 10321 10328 10335 10340 10346 10355 10366 10375 10381 10388 10397 10404 10411 10420 10432 10441 10449 10457 10468 10480 10489 10494 10502 10509 10512 10518 10526 10530 10533 10538 10543 10547 10551 10555 10560 10563 10566 10572 10575 10577 10579 10579 10582 10585 10584 10586 10592 10595 10598 10602 10605 10606 10607 10607 10610 10612 10614 10615 10617 10620 10622 10625 10627
10299 10296 10293 10290 10287 10284 10283 10282 10280 10280 10280 10281 10281 10281 10282 10282 10284 10287 10291 10294 10297 10301 10305 10310 10316 10322 10329 10336 10342 10348 10358 10369 10377 10381 10387 10395 10403 10411 10422 10434 10441 10447 10457 10469 10480 10488 10493 10499 10505 10509 10515 10521 10523 10528 10535 10539 10542 10547 10553 10557 10559 10562 10566 10569 10572 10574 10575 10579 10581 10581 10583 10586 10590 10595 10598 10599 10600 10602 10604 10606 10607 10608 10610 10611 10614 10616 10619 10622
10303 10300 10298 10295 10292 10289 10287 10287 10286 10285 10285 10285 10285 10286 10287 10287 10289 10291 10295 10298 10301 10305 10309 10313 10318 10323 10329 10337 10345 10353 10362 10370 10376 10381 10387 10395 10405 10418 10430 10438 10442 10449 10458 10468 10478 10486 10490 10495 10500 10504 10510 10515 10520 10527 10533 10535 10539 10545 10549 10552 10554 10557 10562 10565 10569 10571 10572 10576 10578 10577 10579 10583 10587 10591 10593 10595 10597 10598 10598 10599 10600 10603 10604 10606 10609 10611 10613 10616
10308 10305 10303 10300 10297 10294 10292 10292 10290 10289 10290 10290 10289 10291 10292 10292 10294 10296 10299 10302 10306 10309 10313 10318 10322 10326 10331 10338 10346 10355 10362 10368 10374 10382 10391 10401 10410 10422 10432 10437 10442 10452 10462 10471 10478 10482 10484 10489 10495 10500 10506 10512 10518 10525 10530 10532 10536 10542 10546 10550 10553 10556 10560 10563 10566 10568 10569 10572 10574 10574 10576 10580 10582 10585 10589 10593 10594 10592 10591 10592 10595 10598 10600 10602 10604 10605 10607 10610
10313 10310 10308 10305 10302 10299 10298 10297 10295 10294 10295 10295 10295 10296 10297 10298 10299 10301 10303 10307 10311 10314 10317 10320 10325 10331 10336 10342 10349 10356 10361 10367 10375 10384 10395 10406 10414 10422 10428 10433 10442 10453 10462 10471 10477 10478 10480 10487 10493 10497 10504 10511 10518 10523 10527 10529 10534 10541 10546 10549 10552 10554 10556 10559 10562 10565 10567 10568 10569 10570 10572 10575 10578 10581 10584 10589 10590 10587 10585 10587 10589 10592 10595 10597 10598 10599 10601 10604